{"data":{"norad_id":65364,"intl_designator":"2025-190P","name":"STARLINK-34729","alt_names":[],"object_type":"PAYLOAD","status":"ACTIVE","operator":null,"country":"US","launch_date":"2025-08-28","launch_site_code":"AFETR","launch_vehicle":null,"mission":null,"orbit_class":"UNKNOWN","rcs_meters":null,"size_class":null,"mass_kg":null,"dimensions":null,"purposes":["comms"],"wikipedia_slug":null,"has_3d_model":false,"image_url":null,"decayed_at":null,"tle_current":{"epoch":"2026-05-24T12:06:38.893248Z","epoch_age_seconds":111798,"freshness":"FRESH","line1":"1 65364U 25190P   26144.50461682 -.00000663  00000+0 -10263-4 0  9992","line2":"2 65364  53.1576 175.9667 0001092  86.4068 273.7057 15.30202183 41784","mean_motion":15.30202183,"eccentricity":0.0001092,"inclination_deg":53.1576,"raan_deg":175.9667,"arg_perigee_deg":86.4068,"mean_anomaly_deg":273.7057,"bstar":-1.0263e-5,"rev_number":4178,"period_min":94.105211454923,"perigee_km":474.46016604835,"apogee_km":475.95693671677,"semimajor_km":6853.3455513826,"source":"CELESTRAK","updated_at":"2026-05-25T13:38:20.767632Z"}}}